"read_dt","SO2 (ppb)","flags","PMT voltage (V)","lamp voltage (V)","lamp intensity (Hz)","internal temp (C)","react chamber temp (C)","sample flow (l/min)","pres (mmHg)","SO2 bkg (ppb)","SO2 coefficient"
2018-07-03 00:00:00,-2.780E-01,4C000000*,-702.3,968.639,89,32.1,44.9,0.408,735.1,2.1,1.050*
2018-07-03 00:01:00,-2.735E-01,4C000000*,-702.6,966.618,90,32.2,45.2,0.408,735.1,2.1,1.050*
2018-07-03 00:02:00,-3.070E-01,4C000000*,-702.6,968.235,89,32.2,44.8,0.408,735.4,2.1,1.050*
2018-07-03 00:03:00,-3.220E-01,4C000000*,-702.6,967.831,90,32.2,45.1,0.408,735.4,2.1,1.050*
2018-07-03 00:04:00,-2.959E-01,4C000000*,-702.3,968.639,91,32.2,44.9,0.408,735.4,2.1,1.050*
2018-07-03 00:05:00,-3.008E-01,4C000000*,-702.3,967.022,91,32.2,44.8,0.408,735.4,2.1,1.050*
2018-07-03 00:06:00,-3.209E-01,4C000000*,-702.6,967.022,90,32.1,45.3,0.408,735.4,2.1,1.050*
2018-07-03 00:07:00,-2.808E-01,4C000000*,-702.3,967.427,91,32.2,44.9,0.408,735.4,2.1,1.050*
2018-07-03 00:08:00,-3.455E-01,4C000000*,-702.3,968.235,90,32.1,45.1,0.408,735.1,2.1,1.050*
2018-07-03 00:09:00,-2.449E-01,4C000000*,-702.6,967.022,90,32.1,45.0,0.408,735.1,2.1,1.050*
2018-07-03 00:10:00,-3.309E-01,4C000000*,-702.6,967.427,89,32.1,45.1,0.408,735.4,2.1,1.050*
2018-07-03 00:11:00,-2.402E-01,4C000000*,-702.6,968.639,90,32.1,45.1,0.408,735.1,2.1,1.050*
2018-07-03 00:12:00,-2.967E-01,4C000000*,-702.6,967.831,90,32.1,45.0,0.408,735.1,2.1,1.050*
2018-07-03 00:13:00,-2.992E-01,4C000000*,-702.6,967.427,88,32.1,45.1,0.408,735.1,2.1,1.050*
2018-07-03 00:14:00,-2.854E-01,4C000000*,-702.6,966.214,90,32.1,44.8,0.408,735.4,2.1,1.050*
2018-07-03 00:15:00,-2.578E-01,4C000000*,-702.6,967.427,90,32.2,45.1,0.408,735.1,2.1,1.050*
2018-07-03 00:16:00,-3.336E-01,4C000000*,-702.6,968.639,90,32.1,44.9,0.408,735.1,2.1,1.050*
2018-07-03 00:17:00,-3.127E-01,4C000000*,-703.0,967.831,91,32.1,44.9,0.408,735.4,2.1,1.050*
2018-07-03 00:18:00,-2.640E-01,4C000000*,-702.6,966.214,89,32.1,45.2,0.408,735.4,2.1,1.050*
2018-07-03 00:19:00,-3.506E-01,4C000000*,-702.6,967.831,90,32.1,44.8,0.408,735.4,2.1,1.050*
2018-07-03 00:20:00,-2.559E-01,4C000000*,-702.3,968.235,88,32.1,45.2,0.408,735.1,2.1,1.050*
2018-07-03 00:21:00,-3.332E-01,4C000000*,-702.6,967.022,89,32.1,44.9,0.408,735.4,2.1,1.050*
2018-07-03 00:22:00,-3.881E-01,4C000000*,-702.6,967.831,91,32.1,45.1,0.408,735.4,2.1,1.050*
2018-07-03 00:23:00,-2.386E-01,4C000000*,-702.6,967.831,90,32.1,45.1,0.408,735.4,2.1,1.050*
2018-07-03 00:24:00,-2.288E-01,4C000000*,-702.3,968.639,89,32.1,44.9,0.408,735.7,2.1,1.050*
2018-07-03 00:25:00,-4.217E-01,4C000000*,-702.6,966.618,90,32.0,45.2,0.408,735.4,2.1,1.050*
2018-07-03 00:26:00,-2.801E-01,4C000000*,-702.6,968.639,89,32.0,44.8,0.408,735.4,2.1,1.050*
2018-07-03 00:27:00,-2.683E-01,4C000000*,-702.3,967.022,88,32.1,45.1,0.408,735.4,2.1,1.050*
2018-07-03 00:28:00,-3.616E-01,4C000000*,-702.6,968.235,91,32.0,45.0,0.408,735.7,2.1,1.050*
2018-07-03 00:29:00,-2.602E-01,4C000000*,-702.6,966.618,90,32.0,45.1,0.408,735.7,2.1,1.050*
2018-07-03 00:30:00,-3.228E-01,4C000000*,-702.6,966.618,90,32.0,45.1,0.408,735.4,2.1,1.050*
2018-07-03 00:31:00,-3.233E-01,4C000000*,-702.6,967.831,90,32.0,44.9,0.408,735.7,2.1,1.050*
2018-07-03 00:32:00,-3.428E-01,4C000000*,-702.3,968.235,90,32.0,45.2,0.408,735.4,2.1,1.050*
2018-07-03 00:33:00,-3.325E-01,4C000000*,-702.6,967.427,90,31.9,44.9,0.408,735.4,2.1,1.050*
2018-07-03 00:34:00,-2.335E-01,4C000000*,-702.3,967.831,91,31.9,45.1,0.408,735.4,2.1,1.050*
2018-07-03 00:35:00,-3.450E-01,4C000000*,-702.6,967.427,90,32.0,44.9,0.408,735.4,2.1,1.050*
2018-07-03 00:36:00,-3.087E-01,4C000000*,-702.6,967.022,90,31.9,45.2,0.408,735.7,2.1,1.050*
2018-07-03 00:37:00,-3.156E-01,4C000000*,-702.6,967.831,90,31.9,45.0,0.408,735.4,2.1,1.050*
2018-07-03 00:38:00,-3.276E-01,4C000000*,-702.6,968.235,91,32.0,44.9,0.408,735.4,2.1,1.050*
2018-07-03 00:39:00,-2.985E-01,4C000000*,-702.3,967.831,90,32.0,45.1,0.408,735.4,2.1,1.050*
2018-07-03 00:40:00,-2.965E-01,4C000000*,-701.9,967.831,91,31.9,44.9,0.408,735.7,2.1,1.050*
2018-07-03 00:41:00,-2.696E-01,4C000000*,-702.3,967.831,90,31.9,45.1,0.408,735.4,2.1,1.050*
2018-07-03 00:42:00,-3.204E-01,4C000000*,-702.6,967.022,91,31.9,44.8,0.408,735.4,2.1,1.050*
2018-07-03 00:43:00,-3.119E-01,4C000000*,-702.3,967.022,89,32.0,45.2,0.408,735.4,2.1,1.050*
2018-07-03 00:44:00,-2.592E-01,4C000000*,-702.6,968.235,90,32.0,45.0,0.408,735.4,2.1,1.050*
2018-07-03 00:45:00,-3.326E-01,4C000000*,-702.6,967.427,90,32.0,45.0,0.408,735.4,2.1,1.050*
2018-07-03 00:46:00,-3.091E-01,4C000000*,-702.6,967.427,90,31.9,45.0,0.408,735.4,2.1,1.050*
2018-07-03 00:47:00,-3.040E-01,4C000000*,-702.3,967.427,90,31.9,44.9,0.408,735.7,2.1,1.050*
2018-07-03 00:48:00,-2.132E-01,4C000000*,-702.6,969.044,91,31.9,45.2,0.408,735.4,2.1,1.050*
2018-07-03 00:49:00,-2.992E-01,4C000000*,-702.6,968.639,91,31.9,44.8,0.408,735.7,2.1,1.050*
2018-07-03 00:50:00,-2.175E-01,4C000000*,-702.3,968.639,90,31.9,45.2,0.408,735.7,2.1,1.050*
2018-07-03 00:51:00,-2.883E-01,4C000000*,-702.6,968.639,90,31.9,44.9,0.408,735.7,2.1,1.050*
2018-07-03 00:52:00,-3.276E-01,4C000000*,-702.3,968.639,90,31.9,45.1,0.408,735.7,2.1,1.050*
2018-07-03 00:53:00,-2.778E-01,4C000000*,-702.3,968.235,90,31.9,45.0,0.408,735.4,2.1,1.050*
2018-07-03 00:54:00,-3.383E-01,4C000000*,-702.6,968.235,90,31.9,44.9,0.408,735.7,2.1,1.050*
2018-07-03 00:55:00,-2.608E-01,4C000000*,-702.6,968.639,91,31.9,45.2,0.408,735.4,2.1,1.050*
2018-07-03 00:56:00,-2.860E-01,4C000000*,-702.6,970.256,91,31.8,44.8,0.408,735.4,2.1,1.050*
2018-07-03 00:57:00,-3.241E-01,4C000000*,-702.6,968.235,90,31.9,45.1,0.408,735.4,2.1,1.050*
2018-07-03 00:58:00,-3.466E-01,4C000000*,-702.6,969.852,90,31.8,44.9,0.408,735.7,2.1,1.050*
2018-07-03 00:59:00,-3.528E-01,4C000000*,-702.6,968.235,90,31.8,45.0,0.408,735.7,2.1,1.050*
2018-07-03 01:00:00,-2.611E-01,4C000000*,-702.3,967.022,90,31.9,45.1,0.408,735.4,2.1,1.050*
2018-07-03 01:01:00,-3.474E-01,4C000000*,-702.6,968.639,90,31.9,44.9,0.408,735.7,2.1,1.050*
2018-07-03 01:02:00,-3.363E-01,4C000000*,-702.3,969.044,90,31.9,45.2,0.408,735.7,2.1,1.050*
2018-07-03 01:03:00,-3.078E-01,4C000000*,-702.6,967.831,90,31.9,44.9,0.408,735.7,2.1,1.050*
2018-07-03 01:04:00,-3.345E-01,4C000000*,-702.6,969.448,90,31.9,45.1,0.408,735.4,2.1,1.050*
2018-07-03 01:05:00,-2.780E-01,4C000000*,-702.6,968.639,90,31.9,44.9,0.408,735.7,2.1,1.050*
2018-07-03 01:06:00,-2.990E-01,4C000000*,-702.3,969.448,90,31.9,45.2,0.408,735.7,2.1,1.050*
2018-07-03 01:07:00,-2.353E-01,4C000000*,-702.3,968.235,90,31.9,45.1,0.408,735.7,2.1,1.050*
2018-07-03 01:08:00,-2.381E-01,4C000000*,-703.0,967.831,89,31.8,45.0,0.408,735.7,2.1,1.050*
2018-07-03 01:09:00,-3.165E-01,4C000000*,-702.6,968.235,90,31.9,45.1,0.408,735.7,2.1,1.050*
2018-07-03 01:10:00,-3.084E-01,4C000000*,-702.3,968.235,89,31.8,44.9,0.408,735.7,2.1,1.050*
2018-07-03 01:11:00,-3.622E-01,4C000000*,-702.6,968.639,90,31.8,45.2,0.408,735.7,2.1,1.050*
2018-07-03 01:12:00,-2.972E-01,4C000000*,-702.6,967.427,90,31.8,44.9,0.408,735.7,2.1,1.050*
2018-07-03 01:13:00,-3.225E-01,4C000000*,-703.0,967.427,89,31.8,45.2,0.408,735.7,2.1,1.050*
2018-07-03 01:14:00,-3.836E-01,4C000000*,-702.3,967.831,90,31.8,45.0,0.408,735.7,2.1,1.050*
2018-07-03 01:15:00,-2.253E-01,4C000000*,-702.6,967.831,88,31.8,45.0,0.408,735.7,2.1,1.050*
2018-07-03 01:16:00,-2.765E-01,4C000000*,-702.6,967.427,89,31.8,45.0,0.408,735.7,2.1,1.050*
2018-07-03 01:17:00,-2.237E-01,4C000000*,-702.3,966.618,90,31.8,45.0,0.408,735.7,2.1,1.050*
2018-07-03 01:18:00,-3.096E-01,4C000000*,-702.6,967.022,89,31.8,45.0,0.408,735.7,2.1,1.050*
2018-07-03 01:19:00,-3.046E-01,4C000000*,-702.6,967.831,90,31.8,44.9,0.408,736.0,2.1,1.050*
2018-07-03 01:20:00,-2.483E-01,4C000000*,-702.3,967.427,90,31.8,45.3,0.408,735.7,2.1,1.050*
2018-07-03 01:21:00,-3.245E-01,4C000000*,-702.6,968.235,90,31.7,44.9,0.408,735.7,2.1,1.050*
2018-07-03 01:22:00,-2.661E-01,4C000000*,-702.6,968.235,91,31.7,45.0,0.408,735.7,2.1,1.050*
2018-07-03 01:23:00,-2.232E-01,4C000000*,-702.6,968.235,90,31.8,45.1,0.408,735.7,2.1,1.050*
2018-07-03 01:24:00,-2.308E-01,4C000000*,-702.6,966.618,89,31.8,44.8,0.408,735.7,2.1,1.050*
2018-07-03 01:25:00,-3.040E-01,4C000000*,-702.6,967.427,90,31.7,45.2,0.408,735.7,2.1,1.050*
2018-07-03 01:26:00,-2.383E-01,4C000000*,-702.6,966.214,89,31.7,44.9,0.408,735.7,2.1,1.050*
2018-07-03 01:27:00,-2.036E-01,4C000000*,-702.6,967.022,90,31.8,45.2,0.408,735.7,2.1,1.050*
2018-07-03 01:28:00,-2.254E-01,4C000000*,-703.0,967.427,90,31.7,45.0,0.408,735.4,2.1,1.050*
2018-07-03 01:29:00,-3.520E-01,4C000000*,-702.6,968.235,89,31.7,45.1,0.408,735.7,2.1,1.050*
2018-07-03 01:30:00,-2.904E-01,4C000000*,-702.6,965.809,89,31.7,45.1,0.408,735.7,2.1,1.050*
2018-07-03 01:31:00,-3.634E-01,4C000000*,-702.6,967.427,91,31.7,44.9,0.408,735.7,2.1,1.050*
2018-07-03 01:32:00,-2.953E-01,4C000000*,-702.6,968.235,90,31.7,45.2,0.408,735.7,2.1,1.050*
2018-07-03 01:33:00,-2.865E-01,4C000000*,-702.6,967.427,90,31.7,44.9,0.408,735.7,2.1,1.050*
2018-07-03 01:34:00,-3.018E-01,4C000000*,-702.6,967.831,90,31.8,45.1,0.408,735.7,2.1,1.050*
2018-07-03 01:35:00,-2.842E-01,4C000000*,-702.6,966.214,88,31.7,44.9,0.408,735.7,2.1,1.050*
2018-07-03 01:36:00,-3.327E-01,4C000000*,-702.6,967.022,90,31.7,45.1,0.408,736.0,2.1,1.050*
2018-07-03 01:37:00,-3.187E-01,4C000000*,-702.6,967.427,90,31.7,45.1,0.408,735.7,2.1,1.050*
2018-07-03 01:38:00,-2.670E-01,4C000000*,-702.3,967.427,90,31.7,45.0,0.408,735.7,2.1,1.050*
2018-07-03 01:39:00,-3.957E-01,4C000000*,-702.3,966.618,89,31.7,45.1,0.408,735.7,2.1,1.050*
2018-07-03 01:40:00,-2.291E-01,4C000000*,-703.0,967.022,89,31.8,44.9,0.408,736.0,2.1,1.050*
2018-07-03 01:41:00,-4.162E-01,4C000000*,-702.6,969.044,90,31.7,45.1,0.408,735.7,2.1,1.050*
2018-07-03 01:42:00,-3.774E-01,4C000000*,-702.6,967.427,90,31.7,44.8,0.408,735.7,2.1,1.050*
2018-07-03 01:43:00,-2.804E-01,4C000000*,-702.3,967.427,90,31.7,45.2,0.408,735.7,2.1,1.050*
2018-07-03 01:44:00,-3.003E-01,4C000000*,-702.6,969.852,90,31.7,45.0,0.408,735.7,2.1,1.050*
2018-07-03 01:45:00,-3.403E-01,4C000000*,-703.0,967.022,90,31.7,44.9,0.408,736.0,2.1,1.050*
2018-07-03 01:46:00,-3.226E-01,4C000000*,-702.6,968.639,90,31.7,45.1,0.408,736.0,2.1,1.050*
2018-07-03 01:47:00,-3.226E-01,4C000000*,-702.6,966.618,90,31.7,44.9,0.408,736.0,2.1,1.050*
2018-07-03 01:48:00,-3.146E-01,4C000000*,-702.3,969.448,89,31.7,45.2,0.408,736.0,2.1,1.050*
2018-07-03 01:49:00,-3.425E-01,4C000000*,-702.3,968.235,89,31.7,44.9,0.408,736.0,2.1,1.050*
2018-07-03 01:50:00,-3.329E-01,4C000000*,-703.0,968.235,90,31.7,45.2,0.408,736.0,2.1,1.050*
2018-07-03 01:51:00,-2.763E-01,4C000000*,-702.6,968.235,90,31.7,45.0,0.408,736.0,2.1,1.050*
2018-07-03 01:52:00,-3.095E-01,4C000000*,-702.3,967.427,89,31.7,45.0,0.408,736.0,2.1,1.050*
2018-07-03 01:53:00,-2.701E-01,4C000000*,-702.6,968.235,88,31.7,45.0,0.408,736.0,2.1,1.050*
2018-07-03 01:54:00,-3.558E-01,4C000000*,-702.6,968.639,90,31.6,44.9,0.408,736.0,2.1,1.050*
2018-07-03 01:55:00,-2.865E-01,4C000000*,-702.3,967.831,89,31.7,45.2,0.408,736.0,2.1,1.050*
2018-07-03 01:56:00,-2.818E-01,4C000000*,-702.6,968.235,91,31.6,44.8,0.408,736.0,2.1,1.050*
2018-07-03 01:57:00,-3.823E-01,4C000000*,-702.3,968.235,90,31.6,45.1,0.408,736.0,2.1,1.050*
2018-07-03 01:58:00,-3.485E-01,4C000000*,-702.6,968.235,91,31.7,44.9,0.408,736.0,2.1,1.050*
2018-07-03 01:59:00,-2.421E-01,4C000000*,-702.6,969.044,90,31.7,45.0,0.408,736.0,2.1,1.050*
2018-07-03 02:00:00,-2.311E-01,4C000000*,-702.3,967.831,91,31.6,45.1,0.408,736.0,2.1,1.050*
2018-07-03 02:01:00,-3.535E-01,4C000000*,-702.6,967.831,89,31.7,44.9,0.408,736.3,2.1,1.050*
2018-07-03 02:02:00,-2.541E-01,4C000000*,-703.0,967.831,90,31.7,45.2,0.408,736.0,2.1,1.050*
2018-07-03 02:03:00,-1.885E-01,4C000000*,-702.6,968.235,90,31.6,44.8,0.409,736.0,2.1,1.050*
2018-07-03 02:04:00,-2.580E-01,4C000000*,-702.3,968.235,91,31.6,45.1,0.408,736.3,2.1,1.050*
2018-07-03 02:05:00,-2.240E-01,4C000000*,-702.6,967.831,90,31.6,44.9,0.408,736.0,2.1,1.050*
2018-07-03 02:06:00,-3.233E-01,4C000000*,-703.4,968.639,91,31.6,45.0,0.408,736.3,2.1,1.050*
2018-07-03 02:07:00,-2.986E-01,4C000000*,-702.6,968.235,90,31.6,45.1,0.408,736.3,2.1,1.050*
2018-07-03 02:08:00,-2.564E-01,4C000000*,-702.6,968.235,88,31.6,44.9,0.408,736.0,2.1,1.050*
2018-07-03 02:09:00,-3.279E-01,4C000000*,-702.6,967.022,89,31.6,45.1,0.408,736.0,2.1,1.050*
2018-07-03 02:10:00,-3.887E-01,4C000000*,-702.6,969.448,91,31.6,44.8,0.408,736.3,2.1,1.050*
2018-07-03 02:11:00,-2.118E-01,4C000000*,-702.6,967.831,91,31.6,45.1,0.408,736.3,2.1,1.050*
2018-07-03 02:12:00,-3.548E-01,4C000000*,-702.3,968.235,90,31.7,44.9,0.408,736.3,2.1,1.050*
2018-07-03 02:13:00,-2.987E-01,4C000000*,-703.0,968.235,90,31.6,45.1,0.408,736.0,2.1,1.050*
2018-07-03 02:14:00,-2.036E-01,4C000000*,-703.0,967.427,91,31.6,45.1,0.408,736.3,2.1,1.050*
2018-07-03 02:15:00,-1.937E-01,4C000000*,-703.0,967.831,90,31.6,45.0,0.409,736.3,2.1,1.050*
2018-07-03 02:16:00,-1.907E-01,4C000000*,-702.6,966.618,90,31.6,45.0,0.408,736.3,2.1,1.050*
2018-07-03 02:17:00,-1.694E-01,4C000000*,-702.6,966.214,90,31.6,44.8,0.408,736.3,2.1,1.050*
2018-07-03 02:18:00,-1.634E-02,4C000000*,-703.0,967.427,90,31.6,45.2,0.408,736.3,2.1,1.050*
2018-07-03 02:19:00,-2.949E-01,4C000000*,-703.0,967.831,90,31.6,44.9,0.409,736.0,2.1,1.050*
2018-07-03 02:20:00,-2.743E-01,4C000000*,-702.3,967.022,91,31.6,45.2,0.408,736.3,2.1,1.050*
2018-07-03 02:21:00,-3.442E-01,4C000000*,-702.6,968.639,91,31.6,45.0,0.408,736.3,2.1,1.050*
2018-07-03 02:22:00,-3.093E-01,4C000000*,-702.3,967.427,90,31.6,45.0,0.408,736.3,2.1,1.050*
2018-07-03 02:23:00,-3.426E-01,4C000000*,-702.6,968.639,89,31.5,45.0,0.408,736.3,2.1,1.050*
2018-07-03 02:24:00,-2.624E-01,4C000000*,-702.3,968.235,90,31.6,44.9,0.408,736.0,2.1,1.050*
2018-07-03 02:25:00,-2.041E-01,4C000000*,-702.3,967.022,88,31.6,45.2,0.408,736.3,2.1,1.050*
2018-07-03 02:26:00,-1.475E-01,4C000000*,-702.6,966.618,90,31.5,44.9,0.408,736.3,2.1,1.050*
2018-07-03 02:27:00,-3.321E-01,4C000000*,-702.6,966.618,89,31.6,45.1,0.408,736.3,2.1,1.050*
2018-07-03 02:28:00,-3.515E-01,4C000000*,-702.3,968.235,90,31.6,45.0,0.408,736.3,2.1,1.050*
2018-07-03 02:29:00,-1.753E-01,4C000000*,-702.6,967.831,90,31.6,45.0,0.408,736.3,2.1,1.050*
2018-07-03 02:30:00,-2.508E-01,4C000000*,-702.6,967.831,91,31.6,45.1,0.408,736.3,2.1,1.050*
2018-07-03 02:31:00,-2.577E-01,4C000000*,-702.6,968.639,91,31.5,44.9,0.408,736.3,2.1,1.050*
2018-07-03 02:32:00,-2.681E-01,4C000000*,-702.6,967.022,90,31.5,45.2,0.408,736.3,2.1,1.050*
2018-07-03 02:33:00,-3.742E-01,4C000000*,-702.6,968.235,90,31.5,44.8,0.408,736.3,2.1,1.050*
2018-07-03 02:34:00,-1.994E-01,4C000000*,-702.3,967.427,88,31.6,45.1,0.408,736.3,2.1,1.050*
2018-07-03 02:35:00,-2.575E-01,4C000000*,-702.6,967.427,90,31.5,45.0,0.408,736.3,2.1,1.050*
2018-07-03 02:36:00,-2.404E-01,4C000000*,-702.6,967.831,90,31.6,45.1,0.408,736.3,2.1,1.050*
2018-07-03 02:37:00,-3.075E-01,4C000000*,-703.0,968.235,90,31.5,45.1,0.408,736.3,2.1,1.050*
2018-07-03 02:38:00,-2.725E-01,4C000000*,-702.6,968.235,90,31.5,44.9,0.408,736.3,2.1,1.050*
2018-07-03 02:39:00,-2.523E-01,4C000000*,-702.6,969.044,90,31.6,45.2,0.408,736.3,2.1,1.050*
2018-07-03 02:40:00,-2.996E-01,4C000000*,-702.3,967.427,90,31.6,44.8,0.408,736.6,2.1,1.050*
2018-07-03 02:41:00,-2.548E-01,4C000000*,-702.3,968.235,91,31.5,45.1,0.408,736.0,2.1,1.050*
2018-07-03 02:42:00,-1.964E-01,4C000000*,-703.0,967.427,90,31.5,45.0,0.408,736.0,2.1,1.050*
2018-07-03 02:43:00,-2.071E-01,4C000000*,-702.6,967.427,91,31.5,45.1,0.408,736.3,2.1,1.050*
2018-07-03 02:44:00,-2.214E-01,4C000000*,-702.6,968.235,89,31.5,45.1,0.408,736.0,2.1,1.050*
2018-07-03 02:45:00,-3.346E-01,4C000000*,-702.6,968.235,89,31.5,44.9,0.408,736.3,2.1,1.050*
2018-07-03 02:46:00,-2.915E-01,4C000000*,-702.6,967.022,89,31.5,45.1,0.408,736.0,2.1,1.050*
2018-07-03 02:47:00,-3.144E-01,4C000000*,-702.3,968.639,90,31.5,44.8,0.409,736.3,2.1,1.050*
2018-07-03 02:48:00,-3.060E-01,4C000000*,-703.0,968.639,89,31.5,45.1,0.408,736.3,2.1,1.050*
2018-07-03 02:49:00,-2.352E-01,4C000000*,-702.6,968.235,89,31.5,44.9,0.408,736.3,2.1,1.050*
2018-07-03 02:50:00,-3.637E-01,4C000000*,-702.6,968.235,90,31.6,45.2,0.409,736.3,2.1,1.050*
2018-07-03 02:51:00,-2.972E-01,4C000000*,-702.6,968.235,91,31.6,45.0,0.409,736.3,2.1,1.050*
2018-07-03 02:52:00,-3.488E-01,4C000000*,-702.3,967.427,91,31.5,45.0,0.408,736.6,2.1,1.050*
2018-07-03 02:53:00,-2.974E-01,4C000000*,-702.6,968.235,91,31.5,45.1,0.408,736.3,2.1,1.050*
2018-07-03 02:54:00,-3.267E-01,4C000000*,-702.6,967.831,89,31.5,44.9,0.408,736.3,2.1,1.050*
2018-07-03 02:55:00,-3.116E-01,4C000000*,-702.3,968.235,88,31.5,45.2,0.408,736.3,2.1,1.050*
2018-07-03 02:56:00,-2.539E-01,4C000000*,-702.6,967.022,90,31.5,44.8,0.408,736.6,2.1,1.050*
2018-07-03 02:57:00,-3.270E-01,4C000000*,-702.3,967.427,90,31.5,45.2,0.408,736.3,2.1,1.050*
2018-07-03 02:58:00,-2.596E-01,4C000000*,-702.6,967.831,90,31.5,44.9,0.408,736.3,2.1,1.050*
2018-07-03 02:59:00,-2.462E-01,4C000000*,-702.6,968.235,90,31.5,45.0,0.409,736.6,2.1,1.050*
2018-07-03 03:00:00,-2.704E-01,4C000000*,-703.0,968.639,90,31.5,45.0,0.408,736.3,2.1,1.050*
2018-07-03 03:01:00,-1.817E-01,4C000000*,-702.6,968.235,91,31.5,44.9,0.408,736.3,2.1,1.050*
2018-07-03 03:02:00,-1.689E-01,4C000000*,-702.6,968.235,89,31.5,45.2,0.408,736.3,2.1,1.050*
2018-07-03 03:03:00,-2.466E-01,4C000000*,-702.3,967.831,90,31.5,44.8,0.408,736.3,2.1,1.050*
2018-07-03 03:04:00,-1.729E-01,4C000000*,-702.6,967.831,90,31.5,45.1,0.408,736.3,2.1,1.050*
2018-07-03 03:05:00,-2.900E-01,4C000000*,-702.6,967.427,90,31.5,44.9,0.408,736.3,2.1,1.050*
2018-07-03 03:06:00,-2.121E-01,4C000000*,-702.6,969.044,89,31.5,45.1,0.408,736.3,2.1,1.050*
2018-07-03 03:07:00,-2.750E-01,4C000000*,-702.3,968.235,89,31.5,44.8,0.408,736.6,2.1,1.050*
2018-07-03 03:08:00,-3.254E-01,4C000000*,-702.6,967.427,90,31.5,45.1,0.409,736.6,2.1,1.050*
2018-07-03 03:09:00,-3.599E-01,4C000000*,-702.3,967.831,88,31.5,44.9,0.408,736.6,2.1,1.050*
2018-07-03 03:10:00,-3.395E-01,4C000000*,-702.6,968.235,90,31.5,45.0,0.408,736.6,2.1,1.050*
2018-07-03 03:11:00,-3.284E-01,4C000000*,-702.3,968.235,91,31.5,45.0,0.408,736.6,2.1,1.050*
2018-07-03 03:12:00,-2.578E-01,4C000000*,-702.3,967.427,91,31.5,44.9,0.408,736.3,2.1,1.050*
2018-07-03 03:13:00,-2.447E-01,4C000000*,-702.6,968.639,90,31.5,45.2,0.408,736.3,2.1,1.050*
2018-07-03 03:14:00,-2.845E-01,4C000000*,-702.6,966.618,89,31.5,44.9,0.408,736.3,2.1,1.050*
2018-07-03 03:15:00,-3.225E-01,4C000000*,-702.6,968.235,90,31.5,45.2,0.408,736.3,2.1,1.050*
2018-07-03 03:16:00,-3.084E-01,4C000000*,-702.6,966.618,89,31.4,45.0,0.408,736.3,2.1,1.050*
2018-07-03 03:17:00,-2.573E-01,4C000000*,-702.6,968.235,89,31.5,44.8,0.408,736.3,2.1,1.050*
2018-07-03 03:18:00,-2.948E-01,4C000000*,-702.6,968.639,90,31.5,45.1,0.408,736.3,2.1,1.050*
2018-07-03 03:19:00,-3.077E-01,4C000000*,-702.6,968.639,90,31.5,45.0,0.408,736.3,2.1,1.050*
2018-07-03 03:20:00,-3.675E-01,4C000000*,-702.6,966.618,89,31.5,45.2,0.409,736.3,2.1,1.050*
2018-07-03 03:21:00,-3.038E-01,4C000000*,-702.3,967.427,90,31.5,45.0,0.408,736.3,2.1,1.050*
2018-07-03 03:22:00,-3.193E-01,4C000000*,-702.3,969.044,90,31.5,45.0,0.408,736.3,2.1,1.050*
2018-07-03 03:23:00,-2.903E-01,4C000000*,-703.0,967.022,91,31.5,45.1,0.408,736.3,2.1,1.050*
2018-07-03 03:24:00,-3.138E-01,4C000000*,-702.3,968.235,91,31.5,44.9,0.408,736.3,2.1,1.050*
2018-07-03 03:25:00,-2.850E-01,4C000000*,-702.6,968.235,90,31.5,45.1,0.409,736.3,2.1,1.050*
2018-07-03 03:26:00,-3.344E-01,4C000000*,-702.3,967.427,90,31.5,44.8,0.408,736.6,2.1,1.050*
2018-07-03 03:27:00,-2.988E-01,4C000000*,-702.6,967.831,89,31.5,45.2,0.408,736.3,2.1,1.050*
2018-07-03 03:28:00,-3.131E-01,4C000000*,-702.6,968.639,90,31.5,45.0,0.408,736.3,2.1,1.050*
2018-07-03 03:29:00,-2.985E-01,4C000000*,-702.6,966.618,89,31.5,45.0,0.408,736.3,2.1,1.050*
2018-07-03 03:30:00,-2.647E-01,4C000000*,-702.6,968.235,89,31.4,45.0,0.408,736.6,2.1,1.050*
2018-07-03 03:31:00,-3.366E-01,4C000000*,-702.3,968.639,91,31.5,44.8,0.408,736.6,2.1,1.050*
2018-07-03 03:32:00,-3.011E-01,4C000000*,-702.6,967.427,90,31.5,45.2,0.408,736.3,2.1,1.050*
2018-07-03 03:33:00,-2.989E-01,4C000000*,-702.6,968.235,91,31.4,44.8,0.408,736.6,2.1,1.050*
2018-07-03 03:34:00,-2.688E-01,4C000000*,-702.6,969.044,88,31.4,45.2,0.408,736.3,2.1,1.050*
2018-07-03 03:35:00,-2.961E-01,4C000000*,-702.3,967.831,91,31.5,44.9,0.408,736.3,2.1,1.050*
2018-07-03 03:36:00,-3.203E-01,4C000000*,-702.6,967.427,90,31.5,45.0,0.408,736.6,2.1,1.050*
2018-07-03 03:37:00,-2.267E-01,4C000000*,-702.3,968.235,90,31.5,45.1,0.408,736.3,2.1,1.050*
2018-07-03 03:38:00,-2.626E-01,4C000000*,-702.6,967.831,89,31.5,44.9,0.408,736.6,2.1,1.050*
2018-07-03 03:39:00,-2.188E-01,4C000000*,-702.6,969.044,90,31.5,45.3,0.408,736.3,2.1,1.050*
2018-07-03 03:40:00,-3.328E-01,4C000000*,-703.0,967.831,89,31.5,44.9,0.408,736.3,2.1,1.050*
2018-07-03 03:41:00,-2.460E-01,4C000000*,-702.6,969.448,90,31.5,45.1,0.408,736.3,2.1,1.050*
2018-07-03 03:42:00,-3.487E-01,4C000000*,-702.6,968.639,91,31.4,44.9,0.408,736.3,2.1,1.050*
2018-07-03 03:43:00,-3.255E-01,4C000000*,-702.6,968.235,89,31.5,45.0,0.408,736.3,2.1,1.050*
2018-07-03 03:44:00,-2.657E-01,4C000000*,-702.6,968.235,90,31.5,45.1,0.408,736.6,2.1,1.050*
2018-07-03 03:45:00,-2.630E-01,4C000000*,-702.6,967.427,90,31.5,44.9,0.408,736.3,2.1,1.050*
2018-07-03 03:46:00,-2.998E-01,4C000000*,-702.6,968.235,91,31.5,45.2,0.408,736.6,2.1,1.050*
2018-07-03 03:47:00,-3.159E-01,4C000000*,-702.6,968.639,90,31.4,44.9,0.408,736.6,2.1,1.050*
2018-07-03 03:48:00,-2.513E-01,4C000000*,-702.6,967.427,90,31.5,45.1,0.408,736.6,2.1,1.050*
2018-07-03 03:49:00,-2.800E-01,4C000000*,-702.6,968.639,90,31.4,44.8,0.408,736.6,2.1,1.050*
2018-07-03 03:50:00,-1.739E-01,4C000000*,-702.3,969.044,91,31.5,45.1,0.408,736.6,2.1,1.050*
2018-07-03 03:51:00,-2.666E-01,4C000000*,-702.6,967.831,89,31.4,45.1,0.408,736.6,2.1,1.050*
2018-07-03 03:52:00,-3.231E-01,4C000000*,-702.6,968.235,89,31.4,45.0,0.408,736.3,2.1,1.050*
2018-07-03 03:53:00,-2.872E-01,4C000000*,-702.6,968.639,90,31.5,45.1,0.408,736.3,2.1,1.050*
2018-07-03 03:54:00,-2.990E-01,4C000000*,-702.3,967.427,90,31.5,44.9,0.408,736.3,2.1,1.050*
2018-07-03 03:55:00,-3.755E-01,4C000000*,-702.6,968.235,89,31.4,45.2,0.408,736.3,2.1,1.050*
2018-07-03 03:56:00,-2.460E-01,4C000000*,-702.6,968.235,89,31.4,44.9,0.408,736.3,2.1,1.050*
2018-07-03 03:57:00,-3.151E-01,4C000000*,-702.3,969.448,90,31.4,45.1,0.408,736.6,2.1,1.050*
2018-07-03 03:58:00,-2.957E-01,4C000000*,-702.3,969.044,90,31.5,45.0,0.408,736.3,2.1,1.050*
2018-07-03 03:59:00,-3.433E-01,4C000000*,-702.3,968.639,89,31.4,45.0,0.408,736.3,2.1,1.050*
2018-07-03 04:00:00,-2.605E-01,4C000000*,-702.6,967.831,90,31.5,45.0,0.408,736.3,2.1,1.050*
2018-07-03 04:01:00,-2.275E-01,4C000000*,-703.0,968.639,90,31.5,45.0,0.408,736.6,2.1,1.050*
2018-07-03 04:02:00,-2.408E-01,4C000000*,-702.3,967.022,90,31.5,45.2,0.408,736.6,2.1,1.050*
2018-07-03 04:03:00,-3.208E-01,4C000000*,-702.6,968.235,90,31.5,44.9,0.409,736.6,2.1,1.050*
2018-07-03 04:04:00,-2.130E-01,4C000000*,-703.0,967.427,89,31.4,45.2,0.409,736.6,2.1,1.050*
2018-07-03 04:05:00,-3.379E-01,4C000000*,-702.6,967.022,91,31.5,44.9,0.408,736.6,2.1,1.050*
2018-07-03 04:06:00,-3.290E-01,4C000000*,-702.6,968.639,90,31.5,45.1,0.408,736.6,2.1,1.050*
2018-07-03 04:07:00,-2.930E-01,4C000000*,-702.3,968.639,91,31.5,44.9,0.408,736.6,2.1,1.050*
2018-07-03 04:08:00,-3.522E-01,4C000000*,-702.6,967.022,89,31.4,45.3,0.408,736.3,2.1,1.050*
2018-07-03 04:09:00,-2.897E-01,4C000000*,-702.6,967.831,90,31.5,44.9,0.408,736.6,2.1,1.050*
2018-07-03 04:10:00,-2.776E-01,4C000000*,-702.6,969.044,90,31.4,45.2,0.408,736.3,2.1,1.050*
2018-07-03 04:11:00,-2.469E-01,4C000000*,-703.0,969.044,91,31.4,44.9,0.408,736.3,2.1,1.050*
2018-07-03 04:12:00,-3.366E-01,4C000000*,-702.6,968.235,88,31.4,45.0,0.408,736.6,2.1,1.050*
2018-07-03 04:13:00,-3.236E-01,4C000000*,-703.0,967.831,89,31.5,45.0,0.408,736.6,2.1,1.050*
2018-07-03 04:14:00,-3.104E-01,4C000000*,-702.6,968.639,91,31.5,44.9,0.408,736.6,2.1,1.050*